NKS833 KFLL-MKJS

Flight info

Callsign NKS833
Flight time 1h 18m
Altitude 37000
Route REGAE2 URSUS UL780 TASNO UM221 NIBEO DCT ADSEL LENAR7
Aircraft A320/M-SDE3FGHIRWY/LB1

Departure

Time 2026-05-05 19:03
Airport Fort Lauderdale Hollywood International Airport (KFLL)

Arrival

Time 2026-05-05 20:21
Airport Sangster International Airport (MKJS)
Time Latitude Longitude Altitude Speed Heading
2026-05-05 18:47 26.06888 -80.14515 37 ft 1 kts
2026-05-05 18:50 26.06878 -80.14516 37 ft 3 kts
2026-05-05 18:50 26.06857 -80.14516 36 ft 3 kts 356°
2026-05-05 18:50 26.06837 -80.14514 37 ft 3 kts 344°
2026-05-05 18:51 26.06820 -80.14506 38 ft 3 kts 308°
2026-05-05 18:51 26.06815 -80.14495 37 ft 1 kts 251°
2026-05-05 18:51 26.06815 -80.14493 37 ft 0 kts 251°
2026-05-05 18:56 26.06812 -80.14503 40 ft 6 kts 250°
2026-05-05 18:57 26.06780 -80.14589 39 ft 16 kts 246°
2026-05-05 18:57 26.06763 -80.14717 39 ft 18 kts 270°
2026-05-05 18:57 26.06763 -80.14753 39 ft 18 kts 269°
2026-05-05 18:58 26.06763 -80.14834 40 ft 19 kts 272°
2026-05-05 18:58 26.06720 -80.14937 39 ft 13 kts 194°
2026-05-05 18:59 26.06694 -80.15028 38 ft 15 kts 271°
2026-05-05 18:59 26.06696 -80.15153 37 ft 18 kts 269°
2026-05-05 18:59 26.06694 -80.15295 36 ft 20 kts 270°
2026-05-05 18:59 26.06695 -80.15357 35 ft 22 kts 271°
2026-05-05 19:00 26.06697 -80.15456 32 ft 24 kts 271°
2026-05-05 19:00 26.06699 -80.15662 25 ft 29 kts 269°
2026-05-05 19:00 26.06691 -80.15808 20 ft 11 kts 229°
2026-05-05 19:00 26.06676 -80.15818 20 ft 0 kts 205°
2026-05-05 19:02 26.06674 -80.15819 20 ft 3 kts 203°
2026-05-05 19:02 26.06612 -80.15819 18 ft 12 kts 162°
2026-05-05 19:02 26.06589 -80.15738 22 ft 12 kts 89°
2026-05-05 19:03 26.06589 -80.15422 31 ft 74 kts 90°
2026-05-05 19:03 26.06582 -80.14646 45 ft 123 kts 90°
2026-05-05 19:03 26.06577 -80.13594 321 ft 139 kts 88°
2026-05-05 19:03 26.06587 -80.12525 833 ft 141 kts 88°
2026-05-05 19:04 26.06607 -80.11419 1334 ft 143 kts 86°
2026-05-05 19:04 26.06632 -80.10283 1685 ft 154 kts 88°
2026-05-05 19:04 26.06652 -80.08991 1952 ft 179 kts 88°
2026-05-05 19:04 26.06671 -80.07523 2210 ft 201 kts 88°
2026-05-05 19:05 26.06687 -80.05877 2504 ft 223 kts 88°
2026-05-05 19:05 26.06703 -80.04058 2858 ft 248 kts 89°
2026-05-05 19:05 26.06719 -80.02058 3450 ft 265 kts 89°
2026-05-05 19:05 26.06730 -79.99973 4278 ft 274 kts 89°
2026-05-05 19:06 26.06720 -79.97827 5141 ft 281 kts 90°
2026-05-05 19:06 26.06698 -79.95634 6004 ft 286 kts 90°
2026-05-05 19:06 26.06673 -79.93399 6862 ft 291 kts 90°
2026-05-05 19:06 26.06646 -79.91129 7690 ft 296 kts 90°
2026-05-05 19:07 26.06619 -79.88826 8502 ft 301 kts 90°
2026-05-05 19:07 26.06593 -79.86482 9311 ft 305 kts 90°
2026-05-05 19:07 26.06566 -79.84100 10071 ft 311 kts 91°
2026-05-05 19:07 26.06354 -79.81677 10607 ft 324 kts 99°
2026-05-05 19:08 26.05968 -79.79123 10821 ft 346 kts 100°
2026-05-05 19:08 26.05545 -79.76438 11293 ft 357 kts 100°
2026-05-05 19:08 26.05107 -79.73693 11915 ft 363 kts 101°
2026-05-05 19:08 26.04663 -79.70911 12570 ft 368 kts 100°
2026-05-05 19:09 26.04217 -79.68092 13213 ft 373 kts 100°
2026-05-05 19:09 26.03767 -79.65236 13840 ft 377 kts 101°
2026-05-05 19:09 26.03127 -79.62391 14378 ft 382 kts 105°
2026-05-05 19:09 26.02437 -79.59527 14936 ft 385 kts 105°
2026-05-05 19:10 26.01742 -79.56635 15485 ft 389 kts 105°
2026-05-05 19:10 26.00823 -79.53793 16014 ft 393 kts 117°
2026-05-05 19:10 25.99322 -79.51256 16549 ft 395 kts 132°
2026-05-05 19:10 25.97310 -79.49180 17083 ft 396 kts 147°
2026-05-05 19:11 25.94912 -79.47693 17608 ft 395 kts 161°
2026-05-05 19:11 25.92272 -79.46862 18125 ft 395 kts 173°
2026-05-05 19:11 25.89557 -79.46287 18601 ft 399 kts 173°
2026-05-05 19:11 25.86808 -79.45976 19055 ft 397 kts 185°
2026-05-05 19:12 25.84071 -79.46247 19520 ft 394 kts 196°
2026-05-05 19:12 25.81452 -79.47075 19997 ft 390 kts 207°
2026-05-05 19:12 25.79040 -79.48412 20480 ft 386 kts 218°
2026-05-05 19:12 25.76790 -79.50047 20955 ft 388 kts 219°
2026-05-05 19:13 25.74525 -79.51694 21425 ft 390 kts 219°
2026-05-05 19:13 25.72241 -79.53346 21889 ft 393 kts 219°
2026-05-05 19:13 25.69944 -79.55006 22345 ft 395 kts 219°
2026-05-05 19:13 25.67653 -79.56705 22806 ft 396 kts 223°
2026-05-05 19:14 25.65490 -79.58590 23265 ft 397 kts 224°
2026-05-05 19:14 25.63317 -79.60495 23697 ft 399 kts 224°
2026-05-05 19:14 25.61134 -79.62409 24067 ft 402 kts 224°
2026-05-05 19:14 25.58936 -79.64337 24434 ft 404 kts 224°
2026-05-05 19:15 25.56727 -79.66276 24795 ft 407 kts 224°
2026-05-05 19:15 25.55754 -79.67131 24958 ft 408 kts 224°
2026-05-05 19:15 25.53525 -79.69090 25312 ft 410 kts 224°
2026-05-05 19:15 25.51276 -79.71058 25672 ft 413 kts 224°
2026-05-05 19:16 25.49015 -79.73034 26030 ft 416 kts 224°
2026-05-05 19:16 25.46739 -79.75023 26393 ft 418 kts 224°
2026-05-05 19:16 25.44446 -79.77023 26746 ft 421 kts 224°
2026-05-05 19:16 25.42921 -79.78353 26987 ft 423 kts 224°
2026-05-05 19:17 25.40569 -79.80333 27331 ft 429 kts 219°
2026-05-05 19:17 25.36966 -79.82272 27780 ft 444 kts 203°
2026-05-05 19:17 25.34926 -79.82831 28009 ft 452 kts 194°
2026-05-05 19:17 25.30710 -79.82976 28455 ft 467 kts 177°
2026-05-05 19:18 25.28534 -79.82526 28682 ft 474 kts 169°
2026-05-05 19:18 25.25353 -79.81513 29026 ft 478 kts 167°
2026-05-05 19:18 25.22153 -79.80482 29383 ft 481 kts 167°
2026-05-05 19:18 25.18935 -79.79447 29735 ft 484 kts 167°
2026-05-05 19:19 25.15691 -79.78406 30090 ft 486 kts 167°
2026-05-05 19:19 25.12431 -79.77362 30383 ft 489 kts 167°
2026-05-05 19:19 25.09153 -79.76316 30661 ft 493 kts 167°
2026-05-05 19:19 25.05846 -79.75266 30939 ft 496 kts 167°
2026-05-05 19:20 25.02518 -79.74209 31216 ft 499 kts 167°
2026-05-05 19:20 24.99179 -79.73147 31573 ft 500 kts 167°
2026-05-05 19:20 24.95839 -79.72084 31954 ft 500 kts 167°
2026-05-05 19:20 24.92489 -79.71015 32330 ft 501 kts 166°
2026-05-05 19:21 24.89202 -79.69690 32695 ft 506 kts 158°
2026-05-05 19:21 24.86091 -79.67858 33058 ft 509 kts 149°
2026-05-05 19:21 24.83111 -79.65744 33422 ft 510 kts 148°
2026-05-05 19:21 24.80126 -79.63629 33809 ft 511 kts 148°
2026-05-05 19:22 24.77135 -79.61519 34169 ft 511 kts 148°
2026-05-05 19:22 24.74137 -79.59410 34506 ft 512 kts 148°
2026-05-05 19:22 24.71138 -79.57306 34851 ft 511 kts 148°
2026-05-05 19:22 24.68138 -79.55204 35190 ft 511 kts 148°
2026-05-05 19:23 24.65139 -79.53105 35527 ft 511 kts 148°
2026-05-05 19:23 24.62142 -79.51003 35858 ft 511 kts 148°
2026-05-05 19:23 24.59153 -79.48907 36178 ft 510 kts 148°
2026-05-05 19:23 24.56158 -79.46805 36503 ft 510 kts 148°
2026-05-05 19:24 24.53174 -79.44714 36818 ft 509 kts 148°
2026-05-05 19:24 24.50186 -79.42617 37003 ft 510 kts 148°
2026-05-05 19:24 24.44255 -79.38452 37038 ft 509 kts 148°
2026-05-05 19:25 24.38284 -79.34278 37040 ft 509 kts 148°
2026-05-05 19:25 24.32317 -79.30115 37039 ft 509 kts 148°
2026-05-05 19:26 24.26365 -79.25923 37039 ft 508 kts 147°
2026-05-05 19:26 24.20452 -79.21665 37039 ft 508 kts 147°
2026-05-05 19:27 24.14553 -79.17392 37043 ft 509 kts 147°
2026-05-05 19:27 24.08632 -79.13141 37047 ft 509 kts 147°
2026-05-05 19:28 24.02536 -79.09248 37048 ft 507 kts 159°
2026-05-05 19:28 23.95795 -79.07303 37048 ft 498 kts 178°
2026-05-05 19:29 23.88943 -79.07236 37044 ft 492 kts 186°
2026-05-05 19:29 23.82099 -79.07392 37042 ft 492 kts 186°
2026-05-05 19:30 23.75255 -79.07539 37044 ft 492 kts 186°
2026-05-05 19:30 23.68411 -79.07691 37049 ft 492 kts 186°
2026-05-05 19:31 23.61565 -79.07839 37048 ft 492 kts 186°
2026-05-05 19:31 23.54724 -79.07986 37046 ft 492 kts 186°
2026-05-05 19:32 23.47882 -79.08135 37046 ft 492 kts 186°
2026-05-05 19:32 23.41045 -79.08287 37047 ft 491 kts 186°
2026-05-05 19:33 23.36125 -79.08406 37047 ft 491 kts 186°
2026-05-05 19:33 23.29295 -79.08563 37042 ft 491 kts 186°
2026-05-05 19:34 23.22472 -79.08709 37042 ft 490 kts 186°
2026-05-05 19:35 23.12244 -79.08926 37041 ft 490 kts 186°
2026-05-05 19:35 23.05435 -79.09079 37038 ft 489 kts 186°
2026-05-05 19:36 22.98631 -79.09237 37039 ft 489 kts 185°
2026-05-05 19:36 22.91836 -79.09386 37039 ft 488 kts 185°
2026-05-05 19:37 22.85047 -79.09533 37039 ft 488 kts 185°
2026-05-05 19:37 22.78256 -79.09680 37041 ft 488 kts 185°
2026-05-05 19:38 22.71478 -79.09830 37040 ft 487 kts 185°
2026-05-05 19:38 22.64699 -79.09979 37042 ft 487 kts 185°
2026-05-05 19:39 22.57935 -79.10131 37042 ft 486 kts 185°
2026-05-05 19:39 22.51166 -79.10281 37045 ft 486 kts 185°
2026-05-05 19:40 22.44451 -79.10419 37046 ft 486 kts 185°
2026-05-05 19:40 22.37701 -79.10566 37051 ft 485 kts 185°
2026-05-05 19:41 22.30957 -79.10721 37050 ft 484 kts 185°
2026-05-05 19:41 22.24220 -79.10875 37051 ft 484 kts 185°
2026-05-05 19:42 22.17487 -79.11018 37048 ft 484 kts 185°
2026-05-05 19:42 22.10756 -79.10657 37050 ft 489 kts 171°
2026-05-05 19:43 22.04096 -79.09161 37047 ft 489 kts 171°
2026-05-05 19:43 21.97430 -79.07681 37043 ft 489 kts 171°
2026-05-05 19:44 21.90765 -79.06213 37040 ft 489 kts 171°
2026-05-05 19:44 21.84104 -79.04744 37042 ft 489 kts 171°
2026-05-05 19:45 21.77438 -79.03272 37036 ft 489 kts 171°
2026-05-05 19:45 21.70772 -79.01794 37051 ft 489 kts 171°
2026-05-05 19:46 21.64106 -79.00321 37049 ft 489 kts 171°
2026-05-05 19:46 21.57447 -78.98861 37049 ft 488 kts 171°
2026-05-05 19:47 21.50786 -78.97398 37034 ft 488 kts 171°
2026-05-05 19:47 21.44138 -78.95929 37036 ft 488 kts 171°
2026-05-05 19:48 21.37496 -78.94461 37040 ft 487 kts 171°
2026-05-05 19:48 21.30856 -78.93000 37047 ft 487 kts 171°
2026-05-05 19:49 21.24224 -78.91542 37037 ft 486 kts 171°
2026-05-05 19:49 21.17592 -78.90093 37043 ft 486 kts 171°
2026-05-05 19:50 21.10972 -78.88643 37043 ft 485 kts 171°
2026-05-05 19:50 21.04358 -78.87196 37049 ft 485 kts 171°
2026-05-05 19:51 20.97749 -78.85755 37043 ft 484 kts 171°
2026-05-05 19:51 20.91153 -78.84306 37042 ft 484 kts 171°
2026-05-05 19:52 20.84561 -78.82871 37045 ft 483 kts 171°
2026-05-05 19:52 20.77971 -78.81436 37044 ft 483 kts 171°
2026-05-05 19:53 20.71386 -78.80004 37043 ft 483 kts 171°
2026-05-05 19:53 20.64813 -78.78577 37040 ft 482 kts 171°
2026-05-05 19:54 20.58244 -78.77144 37038 ft 481 kts 171°
2026-05-05 19:54 20.51688 -78.75725 37038 ft 480 kts 171°
2026-05-05 19:55 20.45135 -78.74308 37035 ft 480 kts 171°
2026-05-05 19:55 20.38632 -78.72893 37035 ft 480 kts 171°
2026-05-05 19:56 20.32045 -78.71465 37035 ft 480 kts 171°
2026-05-05 19:56 20.25497 -78.70050 37034 ft 480 kts 171°
2026-05-05 19:57 20.18951 -78.68630 37029 ft 480 kts 171°
2026-05-05 19:57 20.12450 -78.67225 37029 ft 480 kts 171°
2026-05-05 19:58 20.05908 -78.65818 37027 ft 479 kts 171°
2026-05-05 19:58 19.99369 -78.64410 37021 ft 479 kts 171°
2026-05-05 19:58 19.96097 -78.63720 36354 ft 481 kts 171°
2026-05-05 19:59 19.92772 -78.63042 34947 ft 491 kts 171°
2026-05-05 19:59 19.89408 -78.62372 33908 ft 491 kts 171°
2026-05-05 19:59 19.86057 -78.61708 32912 ft 488 kts 171°
2026-05-05 19:59 19.82740 -78.61048 32041 ft 482 kts 170°
2026-05-05 20:00 19.79467 -78.60390 31216 ft 476 kts 170°
2026-05-05 20:00 19.76237 -78.59736 30404 ft 470 kts 170°
2026-05-05 20:00 19.73045 -78.59087 29529 ft 464 kts 170°
2026-05-05 20:00 19.69899 -78.58449 28655 ft 457 kts 170°
2026-05-05 20:01 19.66802 -78.57826 27820 ft 450 kts 171°
2026-05-05 20:01 19.63747 -78.57214 27026 ft 443 kts 171°
2026-05-05 20:01 19.61710 -78.56807 26497 ft 439 kts 171°
2026-05-05 20:01 19.58739 -78.56213 25868 ft 429 kts 171°
2026-05-05 20:02 19.55890 -78.55639 25432 ft 416 kts 171°
2026-05-05 20:02 19.53082 -78.55071 24975 ft 405 kts 171°
2026-05-05 20:02 19.50353 -78.54519 24520 ft 394 kts 171°
2026-05-05 20:02 19.47693 -78.53982 24070 ft 384 kts 171°
2026-05-05 20:03 19.45065 -78.53455 23627 ft 375 kts 171°
2026-05-05 20:03 19.42565 -78.52954 23151 ft 366 kts 171°
2026-05-05 20:03 19.40094 -78.52458 22715 ft 356 kts 171°
2026-05-05 20:03 19.37691 -78.51976 22299 ft 349 kts 171°
2026-05-05 20:04 19.35307 -78.51497 21882 ft 348 kts 171°
2026-05-05 20:04 19.32939 -78.51020 21473 ft 345 kts 171°
2026-05-05 20:04 19.30598 -78.50548 21059 ft 341 kts 171°
2026-05-05 20:04 19.28276 -78.50084 20653 ft 338 kts 171°
2026-05-05 20:05 19.25974 -78.49626 20245 ft 335 kts 171°
2026-05-05 20:05 19.23694 -78.49170 19841 ft 332 kts 171°
2026-05-05 20:05 19.21437 -78.48715 19443 ft 329 kts 171°
2026-05-05 20:05 19.19197 -78.48265 19049 ft 326 kts 171°
2026-05-05 20:06 19.16977 -78.47819 18650 ft 323 kts 171°
2026-05-05 20:06 19.14775 -78.47379 18254 ft 321 kts 171°
2026-05-05 20:06 19.12593 -78.46943 17827 ft 318 kts 171°
2026-05-05 20:06 19.10428 -78.46513 17445 ft 315 kts 171°
2026-05-05 20:07 19.08277 -78.46086 17057 ft 313 kts 171°
2026-05-05 20:07 19.06142 -78.45661 16680 ft 311 kts 171°
2026-05-05 20:07 19.04026 -78.45237 16306 ft 308 kts 171°
2026-05-05 20:07 19.01928 -78.44815 15934 ft 306 kts 171°
2026-05-05 20:08 18.99843 -78.44397 15564 ft 303 kts 171°
2026-05-05 20:08 18.97780 -78.43969 15202 ft 301 kts 167°
2026-05-05 20:08 18.95816 -78.43209 14842 ft 301 kts 154°
2026-05-05 20:08 18.94060 -78.42014 14491 ft 301 kts 142°
2026-05-05 20:09 18.92571 -78.40468 14129 ft 300 kts 134°
2026-05-05 20:09 18.91161 -78.38857 13771 ft 298 kts 134°
2026-05-05 20:09 18.89754 -78.37261 13386 ft 297 kts 135°
2026-05-05 20:09 18.88343 -78.35664 13026 ft 298 kts 135°
2026-05-05 20:10 18.86925 -78.34057 12660 ft 299 kts 135°
2026-05-05 20:10 18.85508 -78.32450 12300 ft 299 kts 134°
2026-05-05 20:10 18.84089 -78.30838 11925 ft 300 kts 134°
2026-05-05 20:10 18.82664 -78.29222 11564 ft 301 kts 134°
2026-05-05 20:11 18.81235 -78.27604 11199 ft 302 kts 134°
2026-05-05 20:11 18.79802 -78.25980 10821 ft 303 kts 134°
2026-05-05 20:11 18.78365 -78.24350 10442 ft 304 kts 133°
2026-05-05 20:11 18.76924 -78.22717 10078 ft 304 kts 133°
2026-05-05 20:12 18.75488 -78.21093 9728 ft 303 kts 133°
2026-05-05 20:12 18.74061 -78.19480 9491 ft 298 kts 133°
2026-05-05 20:12 18.72655 -78.17889 9159 ft 296 kts 133°
2026-05-05 20:12 18.71258 -78.16306 8829 ft 294 kts 133°
2026-05-05 20:13 18.69871 -78.14735 8510 ft 291 kts 133°
2026-05-05 20:13 18.68494 -78.13181 8214 ft 288 kts 133°
2026-05-05 20:13 18.67132 -78.11645 7898 ft 285 kts 133°
2026-05-05 20:13 18.65783 -78.10121 7597 ft 283 kts 133°
2026-05-05 20:14 18.64439 -78.08613 7285 ft 281 kts 135°
2026-05-05 20:14 18.62806 -78.07555 6996 ft 278 kts 165°
2026-05-05 20:14 18.60902 -78.07620 6706 ft 278 kts 198°
2026-05-05 20:14 18.59203 -78.08606 6373 ft 281 kts 213°
2026-05-05 20:15 18.57597 -78.09773 6025 ft 280 kts 210°
2026-05-05 20:15 18.55884 -78.10716 5676 ft 277 kts 200°
2026-05-05 20:15 18.54050 -78.11330 5237 ft 278 kts 191°
2026-05-05 20:15 18.52125 -78.11656 4768 ft 282 kts 184°
2026-05-05 20:16 18.50153 -78.11743 4272 ft 286 kts 178°
2026-05-05 20:16 18.48157 -78.11613 3780 ft 289 kts 173°
2026-05-05 20:16 18.46168 -78.11270 3299 ft 291 kts 167°
2026-05-05 20:16 18.44494 -78.10786 3070 ft 287 kts 159°
2026-05-05 20:17 18.42920 -78.09641 2998 ft 267 kts 125°
2026-05-05 20:17 18.42329 -78.07932 2995 ft 239 kts 89°
2026-05-05 20:17 18.42823 -78.06364 2813 ft 222 kts 49°
2026-05-05 20:17 18.44002 -78.05402 2570 ft 209 kts 35°
2026-05-05 20:18 18.44878 -78.04272 2346 ft 196 kts 70°
2026-05-05 20:18 18.45285 -78.02965 2137 ft 182 kts 65°
2026-05-05 20:18 18.45801 -78.01792 1879 ft 166 kts 63°
2026-05-05 20:18 18.46262 -78.00746 1672 ft 151 kts 64°
2026-05-05 20:19 18.46689 -77.99773 1506 ft 140 kts 65°
2026-05-05 20:19 18.47092 -77.98851 1317 ft 139 kts 64°
2026-05-05 20:19 18.47489 -77.97943 1143 ft 136 kts 64°
2026-05-05 20:19 18.47881 -77.97044 983 ft 133 kts 65°
2026-05-05 20:20 18.48265 -77.96164 814 ft 132 kts 63°
2026-05-05 20:20 18.48655 -77.95270 646 ft 134 kts 65°
2026-05-05 20:20 18.49037 -77.94389 422 ft 131 kts 68°
2026-05-05 20:20 18.49417 -77.93519 294 ft 131 kts 69°
2026-05-05 20:21 18.49798 -77.92652 96 ft 132 kts 66°
2026-05-05 20:21 18.50170 -77.91812 19 ft 115 kts 65°
2026-05-05 20:21 18.50432 -77.91194 13 ft 67 kts 65°
2026-05-05 20:21 18.50537 -77.90913 14 ft 29 kts 90°
2026-05-05 20:22 18.50540 -77.90761 13 ft 17 kts 86°
2026-05-05 20:22 18.50474 -77.90694 13 ft 14 kts 208°
2026-05-05 20:22 18.50424 -77.90787 15 ft 16 kts 250°
2026-05-05 20:22 18.50374 -77.90901 13 ft 18 kts 245°
2026-05-05 20:23 18.50319 -77.91032 13 ft 21 kts 245°
2026-05-05 20:23 18.50255 -77.91178 15 ft 23 kts 245°
2026-05-05 20:23 18.50187 -77.91323 13 ft 16 kts 223°
2026-05-05 20:23 18.50102 -77.91333 13 ft 11 kts 243°
2026-05-05 20:24 18.50080 -77.91419 13 ft 13 kts 269°
2026-05-05 20:24 18.50079 -77.91507 15 ft 9 kts 214°
2026-05-05 20:24 18.50027 -77.91532 13 ft 8 kts 162°
2026-05-05 20:24 18.49969 -77.91504 13 ft 9 kts 156°
2026-05-05 20:25 18.49944 -77.91492 13 ft 0 kts 156°